Weather History for Springfield, CO

Change the Weather History Date:

Saturday, February 16, 2013

  Actual Average Record
Temperature  
Mean Temperature 39 °F -  
Max Temperature 62 °F 50 °F 78 °F (2011)
Min Temperature 16 °F 21 °F 8 °F (2006)
Degree Days  
Heating Degree Days 26 30  
Month to date heating degree days 444 493  
Since 1 July heating degree days 3374 3669  
Cooling Degree Days 0 0  
Month to date cooling degree days 0 0  
Year to date cooling degree days 0 0  
Moisture  
Dew Point 9 °F    
Average Humidity 43    
Maximum Humidity 74    
Minimum Humidity 12    
Precipitation  
Precipitation 0.00 in 0.01 in 0.02 in (2008)
Month to date precipitation 0.04 0.28  
Year to date precipitation 0.06 0.65  
Sea Level Pressure  
Sea Level Pressure 30.12 in    
Wind  
Wind Speed 9 mph (WNW)    
Max Wind Speed 22 mph    
Max Gust Speed 26 mph    
T = Trace of Precipitation, MM = Missing Value Source: NWS Daily Summary

Daily Weather History Graph

Daily Weather History Graph

Search for Another Location

Airport:

Trip Planner

Search our weather history database for the weather conditions in past years. The results will help you decide how hot, cold, wet, or windy it might be!

Date:

Astronomy

Feb. 16, 2013 Rise Set
Actual Time 6:37 AM MST 5:31 PM MST
Civil Twilight 6:11 AM MST 5:58 PM MST
Nautical Twilight 5:40 AM MST 6:28 PM MST
Astronomical Twilight 5:10 AM MST 6:58 PM MST
Moon 10:01 AM MST (2/16) No Moon Set
Length of Visible Light 11h 46m
Length of Day
10h 53m
Waxing Crescent, 40% of the Moon is Illuminated
Feb 16
Waxing Crescent
Feb 17
First Quarter
Feb 25
Full
Mar 4
Last Quarter
Mar 11
New

Hourly Weather History & Observations

Time (MST) Temp. Windchill Dew Point Humidity Pressure Visibility Wind Dir Wind Speed Gust Speed Precip Events Conditions
12:56 AM 16.0 °F 5.3 °F 9.0 °F 74% 30.35 in - West 8.1 mph - N/A   Unknown
1:56 AM 17.1 °F 5.0 °F 9.0 °F 71% 30.32 in - West 10.4 mph - N/A   Unknown
2:56 AM 18.0 °F 6.1 °F 10.0 °F 71% 30.29 in - West 10.4 mph - N/A   Unknown
3:56 AM 18.0 °F 5.4 °F 10.0 °F 71% 30.26 in - WSW 11.5 mph - N/A   Unknown
4:56 AM 21.9 °F 11.0 °F 12.0 °F 66% 30.22 in - West 10.4 mph - N/A   Unknown
5:56 AM 27.0 °F 16.7 °F 12.0 °F 53% 30.21 in - WNW 11.5 mph - N/A   Unknown
6:56 AM 30.0 °F 20.0 °F 10.9 °F 45% 30.21 in - WNW 12.7 mph - N/A   Unknown
7:56 AM 37.0 °F 28.1 °F 12.0 °F 36% 30.19 in - WNW 15.0 mph - N/A   Unknown
8:56 AM 48.9 °F - 10.9 °F 22% 30.18 in - WNW 15.0 mph 19.6 mph N/A   Unknown
9:56 AM 53.1 °F - 10.0 °F 18% 30.17 in - NNW 13.8 mph 20.7 mph N/A   Unknown
10:56 AM 55.9 °F - 8.1 °F 15% 30.15 in - NNW 15.0 mph 25.3 mph N/A   Unknown
11:56 AM 57.0 °F - 9.0 °F 15% 30.12 in - North 16.1 mph - N/A   Unknown
12:56 PM 59.0 °F - 9.0 °F 14% 30.08 in - North 9.2 mph 18.4 mph N/A   Unknown
1:56 PM 61.0 °F - 9.0 °F 13% 30.05 in - NNE 9.2 mph 20.7 mph N/A   Unknown
2:56 PM 61.0 °F - 8.1 °F 12% 30.03 in - North 4.6 mph - N/A   Unknown
3:56 PM 60.1 °F - 8.1 °F 13% 30.03 in - NNE 8.1 mph - N/A   Unknown
4:56 PM 55.9 °F - 8.1 °F 15% 30.02 in - NE 6.9 mph - N/A   Unknown
5:56 PM 42.1 °F 40.2 °F 7.0 °F 24% 30.04 in - East 3.5 mph - N/A   Unknown
6:56 PM 42.1 °F 38.4 °F 8.1 °F 25% 30.04 in - South 5.8 mph - N/A   Unknown
7:56 PM 34.0 °F 28.0 °F 7.0 °F 32% 30.04 in - SW 6.9 mph - N/A   Unknown
8:56 PM 35.1 °F - 8.1 °F 33% 30.00 in - Calm Calm - N/A   Unknown
9:56 PM 28.9 °F 25.2 °F 7.0 °F 40% 29.99 in - West 3.5 mph - N/A   Unknown
10:56 PM 27.0 °F 17.3 °F 7.0 °F 43% 29.95 in - West 10.4 mph - N/A   Unknown
11:56 PM 28.0 °F 22.8 °F 9.0 °F 45% 29.92 in - WNW 4.6 mph - N/A   Unknown